This is the latest recevied weather packets stored in our database for station/object KM4KBD. If no packets are shown the sender has not sent any weather packets the latest 10 day(s).
| Time | Temp. | Humidity | Pressure | Rain* | Wind** | Luminosity | Snow |
|---|---|---|---|---|---|---|---|
| 1778072534 | 9.44° C | 99% | 1017.1 hPa | 0 mm | - | 46 W/m² | - |
| 1778072232 | 9.44° C | 99% | 1017 hPa | 0 mm | - | 46 W/m² | - |
| 1778071930 | 9.44° C | 99% | 1016.7 hPa | 0 mm | - | 38 W/m² | - |
| 1778071627 | 9.44° C | 99% | 1016.8 hPa | 0 mm | - | 28 W/m² | - |
| 1778071326 | 9.44° C | 99% | 1016.7 hPa | 0 mm | - | 33 W/m² | - |
| 1778071022 | 9.44° C | 99% | 1017.1 hPa | 0 mm | - | 23 W/m² | - |
| 1778070721 | 9.44° C | 99% | 1016.9 hPa | 1.27 mm | - | 27 W/m² | - |
| 1778070417 | 9.44° C | 99% | 1016.6 hPa | 1.27 mm | - | 25 W/m² | - |
| 1778070115 | 10° C | 99% | 1016.6 hPa | 0 mm | - | 20 W/m² | - |
| 1778069813 | 10° C | 99% | 1016.1 hPa | 0 mm | - | 20 W/m² | - |
| 1778069508 | 10° C | 99% | 1015.9 hPa | 0 mm | - | 23 W/m² | - |
| 1778069207 | 10° C | 99% | 1016 hPa | 0 mm | - | 28 W/m² | - |
| 1778068904 | 10° C | 99% | 1015.8 hPa | 0 mm | - | 22 W/m² | - |
| 1778068602 | 10.56° C | 99% | 1015.8 hPa | 0 mm | - | 18 W/m² | - |
| 1778068300 | 11.11° C | 99% | 1015.9 hPa | 0 mm | - | 15 W/m² | - |
| 1778067997 | 11.67° C | 99% | 1015.9 hPa | 0 mm | - | 13 W/m² | - |
| 1778067695 | 11.67° C | 99% | 1015.5 hPa | 0 mm | - | 12 W/m² | - |
| 1778067393 | 12.22° C | 99% | 1015.5 hPa | 0 mm | - | 13 W/m² | - |
| 1778067090 | 12.78° C | 99% | 1015.4 hPa | 0 mm | - | 9 W/m² | - |
| 1778066786 | 13.89° C | 99% | 1015.2 hPa | 0 mm | - | 8 W/m² | - |
| 1778066484 | 13.89° C | 99% | 1015 hPa | 0 mm | - | 9 W/m² | - |
| 1778066181 | 13.89° C | 99% | 1014.6 hPa | 0 mm | - | 11 W/m² | - |
| 1778065879 | 14.44° C | 99% | 1014.4 hPa | 0 mm | - | 9 W/m² | - |
| 1778065576 | 14.44° C | 99% | 1014.1 hPa | 0 mm | - | 6 W/m² | - |
| 1778065274 | 14.44° C | 99% | 1014.2 hPa | 0 mm | - | 7 W/m² | - |
* Rain latest hour (hover to see other rain measurements)
** Current wind speed in m/s (hover to see current wind gust speed)